| time (UTC) | temp C | wind direction | speed KPH | gust KPH | rain 1hr cm | rain 24hr cm | rain mn cm | humidity % | barometer mb |
| 20260503051541 | 11 | 284 | 0.0 | 0.0 | 0.00 | 0.00 | 0.00 | 60 | 877.6 |
| 20260503050040 | 11 | 285 | 0.0 | 4.8 | 0.00 | 0.00 | 0.00 | 65 | 877.5 |
| 20260503044544 | 11 | 284 | 0.0 | 3.2 | 0.00 | 0.00 | 0.00 | 65 | 877.4 |
| 20260503043039 | 11 | 285 | 0.0 | 0.0 | 0.00 | 0.00 | 0.00 | 61 | 877.3 |
| 20260503041539 | 12 | 284 | 1.6 | 4.8 | 0.00 | 0.00 | 0.00 | 53 | 877.2 |
| 20260503040038 | 12 | 284 | 0.0 | 3.2 | 0.00 | 0.00 | 0.00 | 48 | 877.1 |
| 20260503034538 | 12 | 285 | 0.0 | 0.0 | 0.00 | 0.00 | 0.00 | 50 | 877.0 |
| 20260503033039 | 13 | 284 | 0.0 | 3.2 | 0.00 | 0.00 | 0.00 | 44 | 876.8 |
| 20260503031536 | 14 | 284 | 0.0 | 1.6 | 0.00 | 0.00 | 0.00 | 49 | 876.7 |
| 20260503030049 | 15 | 284 | 0.0 | 4.8 | 0.00 | 0.00 | 0.00 | 41 | 876.7 |
| 20260503024540 | 15 | 287 | 0.0 | 4.8 | 0.00 | 0.00 | 0.00 | 38 | 876.6 |
| 20260503023035 | 16 | 78 | 0.0 | 4.8 | 0.00 | 0.00 | 0.00 | 40 | 876.5 |
| 20260503021538 | 16 | 94 | 3.2 | 9.7 | 0.00 | 0.00 | 0.00 | 41 | 876.4 |
| 20260503020033 | 17 | 100 | 4.8 | 11.3 | 0.00 | 0.00 | 0.00 | 56 | 876.4 |
| 20260503014535 | 17 | 104 | 4.8 | 11.3 | 0.00 | 0.00 | 0.00 | 62 | 876.4 |
| 20260503013032 | 18 | 157 | 11.3 | 20.9 | 0.00 | 0.00 | 0.00 | 54 | 876.3 |
| 20260503011533 | 18 | 141 | 9.7 | 20.9 | 0.00 | 0.00 | 0.00 | 50 | 876.2 |
| 20260503010032 | 19 | 129 | 11.3 | 20.9 | 0.00 | 0.00 | 0.00 | 62 | 876.2 |
| 20260503004531 | 20 | 163 | 11.3 | 20.9 | 0.00 | 0.00 | 0.00 | 60 | 876.2 |
| 20260503003030 | 20 | 175 | 12.9 | 20.9 | 0.00 | 0.00 | 0.00 | 58 | 876.2 |
| 20260503001529 | 21 | 132 | 9.7 | 20.9 | 0.00 | 0.00 | 0.00 | 57 | 876.2 |
| 20260503000033 | 21 | 165 | 14.5 | 25.7 | 0.00 | 0.00 | 0.00 | 48 | 876.1 |
| 20260502234529 | 22 | 156 | 11.3 | 22.5 | 0.00 | 0.00 | 0.00 | 48 | 876.1 |
| 20260502233026 | 22 | 148 | 11.3 | 22.5 | 0.00 | 0.00 | 0.00 | 45 | 876.2 |
| 20260502231526 | 22 | 147 | 14.5 | 20.9 | 0.00 | 0.00 | 0.00 | 40 | 876.2 |
| 20260502230025 | 21 | 109 | 14.5 | 25.7 | 0.00 | 0.00 | 0.00 | 49 | 876.4 |
| 20260502224524 | 22 | 144 | 17.7 | 27.4 | 0.00 | 0.00 | 0.00 | 45 | 876.4 |
| 20260502223022 | 22 | 137 | 11.3 | 24.1 | 0.00 | 0.00 | 0.00 | 41 | 876.8 |
| 20260502221521 | 22 | 137 | 11.3 | 19.3 | 0.00 | 0.00 | 0.00 | 41 | 877.0 |
| 20260502220022 | 22 | 131 | 14.5 | 27.4 | 0.00 | 0.00 | 0.00 | 48 | 877.1 |
| 20260502214517 | 23 | 157 | 4.8 | 17.7 | 0.00 | 0.00 | 0.00 | 30 | 877.6 |
| 20260502213033 | 22 | 234 | 4.8 | 19.3 | 0.00 | 0.00 | 0.00 | 22 | 877.6 |
| 20260502211513 | 23 | 262 | 16.1 | 29.0 | 0.00 | 0.00 | 0.00 | 32 | 877.4 |
| 20260502210014 | 22 | 301 | 19.3 | 27.4 | 0.00 | 0.00 | 0.00 | 31 | 877.4 |
| 20260502204512 | 23 | 291 | 16.1 | 25.7 | 0.00 | 0.00 | 0.00 | 22 | 877.7 |
| 20260502203011 | 22 | 306 | 19.3 | 29.0 | 0.00 | 0.00 | 0.00 | 23 | 877.8 |
| 20260502201522 | 23 | 310 | 16.1 | 25.7 | 0.00 | 0.00 | 0.00 | 27 | 877.7 |
| 20260502200010 | 22 | 295 | 17.7 | 27.4 | 0.00 | 0.00 | 0.00 | 28 | 877.9 |
| 20260502194512 | 22 | 261 | 19.3 | 29.0 | 0.00 | 0.00 | 0.00 | 27 | 877.9 |
| 20260502193009 | 22 | 239 | 14.5 | 29.0 | 0.00 | 0.00 | 0.00 | 28 | 878.1 |
| 20260502191508 | 22 | 277 | 14.5 | 29.0 | 0.00 | 0.00 | 0.00 | 25 | 878.3 |
| 20260502190009 | 22 | 261 | 14.5 | 27.4 | 0.00 | 0.00 | 0.00 | 30 | 878.4 |
| 20260502184507 | 22 | 266 | 14.5 | 30.6 | 0.00 | 0.00 | 0.00 | 29 | 878.5 |
| 20260502183003 | 22 | 254 | 16.1 | 29.0 | 0.00 | 0.00 | 0.00 | 28 | 878.4 |
| 20260502181502 | 22 | 270 | 17.7 | 30.6 | 0.00 | 0.00 | 0.00 | 27 | 878.5 |
| 20260502163052 | 21 | 279 | 16.1 | 29.0 | 0.00 | 0.00 | 0.00 | 31 | 878.7 |
| 20260502161550 | 20 | 298 | 19.3 | 30.6 | 0.00 | 0.00 | 0.00 | 30 | 878.6 |
| 20260502151547 | 18 | 277 | 9.7 | 14.5 | 0.00 | 0.00 | 0.00 | 37 | 878.7 |
| 20260502123015 | 5 | 298 | 4.8 | 8.0 | 0.00 | 0.00 | 0.00 | 84 | 877.7 |
| 20260502121515 | 5 | 304 | 6.4 | 9.7 | 0.00 | 0.00 | 0.00 | 85 | 877.7 |
| 20260502114510 | 5 | 293 | 4.8 | 9.7 | 0.00 | 0.00 | 0.00 | 82 | 877.7 |
| 20260502113007 | 6 | 309 | 4.8 | 9.7 | 0.00 | 0.00 | 0.00 | 83 | 877.5 |
| 20260502111506 | 6 | 281 | 6.4 | 9.7 | 0.00 | 0.00 | 0.00 | 82 | 877.5 |
| 20260502110006 | 6 | 283 | 4.8 | 8.0 | 0.00 | 0.00 | 0.00 | 84 | 877.4 |
| 20260502104504 | 6 | 309 | 6.4 | 14.5 | 0.00 | 0.00 | 0.00 | 82 | 877.5 |
| 20260502103004 | 6 | 302 | 3.2 | 9.7 | 0.00 | 0.00 | 0.00 | 81 | 877.4 |
| 20260502101600 | 6 | 275 | 3.2 | 8.0 | 0.00 | 0.00 | 0.00 | 80 | 877.4 |
| 20260502100103 | 6 | 292 | 4.8 | 9.7 | 0.00 | 0.00 | 0.00 | 81 | 877.4 |
| 20260502071531 | 10 | 304 | 0.0 | 0.0 | 0.00 | 0.00 | 0.00 | 71 | 878.1 |
| 20260502070030 | 10 | 304 | 0.0 | 4.8 | 0.00 | 0.00 | 0.00 | 71 | 878.1 |
| 20260502064543 | 10 | 304 | 3.2 | 6.4 | 0.00 | 0.00 | 0.00 | 75 | 878.1 |
| 20260502063034 | 11 | 282 | 4.8 | 6.4 | 0.00 | 0.00 | 0.00 | 75 | 878.2 |
| 20260502061530 | 11 | 296 | 0.0 | 0.0 | 0.00 | 0.00 | 0.00 | 70 | 878.1 |
| 20260502060029 | 12 | 295 | 3.2 | 6.4 | 0.00 | 0.00 | 0.00 | 73 | 878.1 |
| 20260502054530 | 13 | 255 | 0.0 | 9.7 | 0.00 | 0.00 | 0.00 | 71 | 878.0 |
| 20260502053026 | 13 | 113 | 0.0 | 11.3 | 0.00 | 0.00 | 0.00 | 59 | 878.0 |